Change the Weather History Date:

Wednesday, November 3, 2010

  Actual Average Record
Temperature  
Mean Temperature 46 °F 34 °F  
Max Temperature 53 °F 43 °F 66 °F (2008)
Min Temperature 39 °F 24 °F 0 °F (1991)
Degree Days  
Heating Degree Days 19 31  
Month to date heating degree days 58 92  
Since 1 July heating degree days 888 1123  
Cooling Degree Days 0 0  
Month to date cooling degree days 0 0  
Year to date cooling degree days 492 379  
Moisture  
Dew Point 34 °F    
Average Humidity 63    
Maximum Humidity 76    
Minimum Humidity 50    
Precipitation  
Precipitation 0.00 in 0.04 in 0.32 in (2005)
Month to date precipitation 0.01 0.12  
Year to date precipitation 26.48 19.37  
Snow  
Snow 0.00 in 0.10 in 2.00 in (2012)
Month to date snowfall 0.0 0.4  
Since 1 July snowfall T 1.9  
Since 1 September snowfall T 1.9  
Snow Depth 0.00 in    
Sea Level Pressure  
Sea Level Pressure 30.14 in    
Wind  
Wind Speed 15 mph (NW)    
Max Wind Speed 25 mph    
Max Gust Speed 33 mph    
Visibility 10 miles    
Events      
T = Trace of Precipitation, MM = Missing Value Source: NWS Daily Summary

Daily Weather History Graph

Daily Weather History Graph

Search for Another Location

Airport or City:

Trip Planner

Search our weather history database for the weather conditions in past years. The results will help you decide how hot, cold, wet, or windy it might be!

Date:

Astronomy

Nov. 03, 2010 Rise Set
Actual Time 8:16 AM CDT 6:07 PM CDT
Civil Twilight 7:43 AM CDT 6:39 PM CDT
Nautical Twilight 7:07 AM CDT 7:16 PM CDT
Astronomical Twilight 6:31 AM CDT 7:52 PM CDT
Moon 5:07 AM CDT 4:25 PM CDT
Length of Visible Light 10h 55m
Length of Day
9h 50m
Waning Crescent, 9% of the Moon is Illuminated
Nov 3
Waning Crescent
Nov 5
New
Nov 13
First Quarter
Nov 21
Full
Nov 28
Last Quarter

Hourly Weather History & Observations

Time (CDT) Temp. Windchill Dew Point Humidity Pressure Visibility Wind Dir Wind Speed Gust Speed Precip Events Conditions
12:53 AM 42.1 °F 36.6 °F 36.0 °F 79% 30.09 in 10.0 mi West 9.2 mph - N/A   Clear
1:53 AM 44.1 °F 38.6 °F 36.0 °F 73% 30.09 in 10.0 mi WNW 10.4 mph - N/A   Clear
2:53 AM 44.1 °F 37.4 °F 35.1 °F 71% 30.08 in 10.0 mi WNW 13.8 mph - N/A   Partly Cloudy
3:53 AM 42.1 °F 35.2 °F 34.0 °F 73% 30.07 in 10.0 mi WNW 12.7 mph - N/A   Clear
4:53 AM 42.1 °F 35.7 °F 33.1 °F 70% 30.08 in 10.0 mi WNW 11.5 mph - N/A   Clear
5:53 AM 41.0 °F 34.3 °F 33.1 °F 73% 30.09 in 10.0 mi WNW 11.5 mph - N/A   Clear
6:53 AM 41.0 °F 34.3 °F 33.1 °F 73% 30.09 in 10.0 mi WNW 11.5 mph - N/A   Clear
7:53 AM 41.0 °F 33.1 °F 32.0 °F 70% 30.09 in 10.0 mi WNW 15.0 mph - N/A   Clear
8:53 AM 42.1 °F 34.9 °F 32.0 °F 67% 30.10 in 10.0 mi WNW 13.8 mph - N/A   Clear
9:53 AM 44.1 °F 35.9 °F 33.1 °F 65% 30.11 in 10.0 mi NW 19.6 mph 27.6 mph N/A   Clear
10:53 AM 46.0 °F 39.3 °F 33.1 °F 61% 30.12 in 10.0 mi NW 16.1 mph 29.9 mph N/A   Clear
11:53 AM 48.9 °F - 34.0 °F 56% 30.12 in 10.0 mi NW 24.2 mph 31.1 mph N/A   Clear
12:53 PM 51.1 °F - 35.1 °F 54% 30.14 in 10.0 mi NNW 20.7 mph 28.8 mph N/A   Partly Cloudy
1:53 PM 51.1 °F - 35.1 °F 54% 30.14 in 10.0 mi NNW 18.4 mph 24.2 mph N/A   Partly Cloudy
2:53 PM 53.1 °F - 36.0 °F 52% 30.14 in 10.0 mi NW 15.0 mph 24.2 mph N/A   Partly Cloudy
3:53 PM 53.1 °F - 36.0 °F 52% 30.16 in 10.0 mi NW 18.4 mph 27.6 mph N/A   Clear
4:53 PM 53.1 °F - 36.0 °F 52% 30.17 in 10.0 mi NW 13.8 mph 21.9 mph N/A   Clear
5:53 PM 50.0 °F - 35.1 °F 57% 30.17 in 10.0 mi NW 12.7 mph - N/A   Clear
6:53 PM 46.9 °F - 35.1 °F 63% 30.19 in 10.0 mi WNW 13.8 mph 20.7 mph N/A   Clear
7:53 PM 46.0 °F 39.9 °F 35.1 °F 66% 30.20 in 10.0 mi WNW 13.8 mph - N/A   Clear
8:53 PM 44.1 °F 37.7 °F 34.0 °F 68% 30.21 in 10.0 mi NW 12.7 mph - N/A   Clear
9:53 PM 44.1 °F 37.4 °F 34.0 °F 68% 30.22 in 10.0 mi NW 13.8 mph 20.7 mph N/A   Partly Cloudy
10:53 PM 43.0 °F 35.7 °F 33.1 °F 68% 30.23 in 10.0 mi NW 15.0 mph - N/A   Clear
11:53 PM 41.0 °F 34.3 °F 33.1 °F 73% 30.25 in 10.0 mi NW 11.5 mph - N/A   Clear